{"data":{"norad_id":57114,"epoch":"2026-05-25T04:19:26.302656Z","epoch_age_seconds":59653,"freshness":"FRESH","line1":"1 57114U 23090P   26145.18016554  .00000330  00000+0  22010-4 0  9994","line2":"2 57114  43.0013 209.3249 0002244 320.2403  39.8283 15.26742875162038","mean_motion":15.26742875,"eccentricity":0.0002244,"inclination_deg":43.0013,"raan_deg":209.3249,"arg_perigee_deg":320.2403,"mean_anomaly_deg":39.8283,"bstar":2.201e-5,"rev_number":16203,"period_min":94.318435905588,"perigee_km":484.01668181203,"apogee_km":487.09710763198,"semimajor_km":6863.693894722,"source":"CELESTRAK","updated_at":"2026-05-25T13:38:18.242046Z"}}